Location: Burzi?i
(45.0869°N, 16.0577°E)
Time: 11:44:44
(UTC+00:00)

Cosmos 2263 Rocket - Pass Details

Date: 29 October 2020
Orbit: 822 x 850 km, 71.0° (Epoch: 27 November)

Event Time Altitude Azimuth Distance (km) Brightness Sun altitude
Rises 16:54:56 0° 342° (NNW) 3,420 5.5 -12.4°
Reaches altitude 10° 16:58:10 10° 0° (N) 2,484 4.6 -13.0°
Maximum altitude 17:02:07 19° 45° (NE) 1,934 3.6 -13.7°
Enters shadow 17:03:27 17° 62° (ENE) 2,004 3.6 -13.9°
